Theta_e
318 319 319 320 321 320 317 316 314 311 309 308 307 306 304 303 302 302 302 302 301 302 303 302 301 302 300 301 302 302 302 303 299 301 304 306 307 308 308 312 312 315 315
313 313 314 314 313 313 312 311 310 308 307 305 304 302 301 300 300 299 299 297 298 298 299 300 298 297 298 299 299 299 299 300 298 296 299 300 302 305 305 304 304 306 309
307 307 308 307 308 308 308 308 306 304 302 301 300 299 298 298 297 298 297 297 297 297 297 296 296 296 296 297 297 297 298 298 298 297 296 299 299 300 300 302 303 304 305
305 305 305 305 305 306 306 304 302 301 299 298 298 297 297 297 296 296 295 295 296 296 297 296 296 295 295 296 296 296 296 295 296 295 295 295 296 298 298 297 296 298 299
305 304 304 305 304 304 303 301 300 299 297 297 296 295 295 294 293 295 294 294 294 294 295 295 295 293 289 291 292 292 293 293 293 292 292 292 293 292 292 295 294 295 296
303 303 303 302 301 299 299 298 297 296 296 295 293 293 293 291 291 291 291 292 292 292 292 293 294 290 291 290 291 291 292 290 290 289 289 289 290 292 294 293 292 291 289
301 301 300 299 297 296 296 295 294 294 293 292 292 292 291 292 291 291 290 290 290 291 291 292 291 291 289 292 292 292 292 292 292 290 288 289 289 291 292 290 290 290 290
299 299 298 294 294 293 292 292 292 291 290 290 290 290 290 290 290 290 289 289 289 290 291 291 291 291 291 290 290 290 289 290 291 292 292 291 292 293 293 293 291 290 290
291 291 292 292 291 290 289 289 289 289 288 288 286 286 286 288 289 289 288 288 288 288 289 289 290 289 290 290 289 287 286 287 291 292 292 293 293 293 292 289 286 285 284
283 283 284 286 288 288 287 286 285 285 284 284 284 285 285 285 286 287 287 286 285 285 286 286 286 286 289 290 287 286 284 285 286 287 287 289 290 290 290 290 288 284 284
280 280 280 281 281 282 282 282 282 282 282 283 282 284 284 284 284 285 285 285 284 283 283 283 284 287 288 287 287 285 285 287 287 286 286 286 287 287 287 288 288 287 285
277 277 277 277 278 279 279 279 280 280 280 281 281 282 283 283 282 282 282 282 283 281 280 281 282 283 284 284 283 284 285 286 283 283 283 283 283 284 285 287 288 288 289
274 273 274 274 275 276 277 277 278 278 278 278 278 278 279 280 280 281 281 281 281 279 280 280 282 282 282 282 282 283 282 282 281 280 280 281 283 285 286 286 286 287 287
272 272 273 272 274 274 275 275 276 276 275 276 276 275 276 276 277 278 278 278 278 278 278 278 279 280 280 280 278 280 280 280 280 280 280 282 284 283 283 284 284 284 284
271 271 272 272 272 273 273 272 273 274 273 273 273 273 273 273 274 276 276 276 276 277 276 275 274 274 274 275 276 276 277 278 278 278 278 279 280 281 282 284 283 283 282
270 270 268 270 271 271 271 272 272 272 273 273 274 273 273 274 275 276 276 276 277 277 273 272 271 271 271 271 271 271 273 273 274 275 276 276 277 278 279 281 282 281 280
267 268 269 269 269 269 269 269 268 271 272 271 272 272 273 273 274 274 275 276 276 275 269 269 268 268 268 269 269 269 269 270 272 271 272 272 273 274 275 277 278 278 279
266 265 267 267 267 268 268 267 267 267 266 268 270 271 272 272 273 274 274 272 267 268 267 266 266 267 267 267 268 268 268 269 269 270 270 271 271 272 272 273 274 275 277
266 266 266 266 267 265 266 266 267 266 266 266 267 269 269 270 272 273 271 266 265 264 265 265 266 266 266 266 267 267 267 267 268 268 268 269 270 270 270 271 272 273 275
265 264 264 265 266 266 266 266 266 266 265 265 265 266 266 267 266 265 265 265 264 264 264 264 265 265 265 265 265 265 265 266 266 267 268 269 269 270 270 270 272 272 274
265 265 264 265 265 265 265 265 265 264 264 264 264 266 270 267 264 264 264 264 264 264 264 264 264 264 265 265 265 264 264 265 265 266 266 267 269 269 270 270 271 272 274
265 265 265 264 265 264 264 263 264 263 264 263 264 265 269 264 264 264 264 264 265 265 265 265 265 265 265 265 264 264 264 264 264 265 266 267 268 268 270 270 270 271 273
265 264 264 264 264 262 263 264 263 263 263 263 263 264 264 264 264 264 264 264 265 265 265 265 265 265 266 266 267 267 266 266 266 267 266 266 266 267 268 269 270 272 272
264 263 263 263 263 262 262 263 263 262 262 263 263 264 263 263 263 263 264 264 264 265 265 266 266 266 267 268 270 270 271 270 270 269 269 268 267 267 267 268 269 270 271
263 263 262 262 262 262 262 262 262 263 263 263 263 263 263 263 263 263 263 264 264 264 265 265 266 267 268 269 270 271 272 271 270 270 271 271 271 269 268 268 269 271 273
263 262 262 262 261 262 262 262 262 262 262 262 262 262 262 262 262 262 263 263 263 264 264 266 267 268 269 271 272 272 273 272 270 271 273 272 272 273 270 269 269 270 272
Wind_Speed
6 6 7 7 7 6 6 7 7 7 8 8 8 7 7 7 6 5 5 4 4 4 4 5 5 5 5 5 5 6 7 7 11 13 10 10 12 12 11 10 10 11 10
3 4 6 7 7 7 7 8 8 8 7 7 7 7 6 6 6 6 6 5 5 5 4 4 6 4 6 6 5 8 8 8 9 16 14 10 11 11 12 13 11 10 10
3 4 4 5 6 6 6 6 6 6 6 6 6 7 7 7 6 5 4 4 5 4 4 5 6 5 6 5 7 7 7 7 8 9 15 11 10 9 11 10 11 11 10
5 5 5 6 6 5 4 5 6 7 7 7 6 5 4 5 4 3 3 3 4 4 4 5 6 7 7 7 7 7 8 8 8 8 11 13 10 7 6 9 12 5 10
7 7 9 6 6 6 6 6 6 6 6 5 6 4 4 3 3 2 1 3 4 5 5 6 6 7 9 9 7 9 9 8 8 8 11 11 11 8 6 6 11 12 12
9 10 6 6 6 5 5 6 6 5 4 5 4 4 4 3 4 2 2 4 5 6 7 7 6 6 8 13 15 17 14 11 12 9 11 13 17 10 8 8 9 10 11
8 7 6 7 9 9 7 7 6 6 6 5 4 4 3 1 1 2 4 4 6 7 8 8 8 6 5 8 12 15 17 20 22 14 16 15 17 11 11 12 11 11 13
3 4 5 6 6 6 6 6 5 5 5 4 4 3 1 1 2 5 7 6 6 8 9 9 10 11 9 9 13 15 14 13 12 11 16 19 15 13 11 11 12 15 17
7 7 7 3 4 6 6 6 5 5 4 3 3 1 1 2 3 5 7 6 7 8 8 9 11 13 13 13 14 17 17 14 12 18 23 27 27 26 21 13 13 13 17
6 6 6 6 5 5 6 6 3 4 3 3 1 1 2 3 5 8 8 4 7 8 10 9 9 9 15 15 13 14 18 15 13 13 12 16 17 16 23 15 11 15 13
6 6 7 7 7 6 6 5 4 4 3 2 1 1 1 2 3 6 7 4 5 8 9 10 9 16 18 20 21 14 17 19 20 16 15 14 13 13 12 12 13 14 15
5 7 7 7 6 5 5 5 4 4 3 2 2 1 1 3 4 5 9 10 11 9 10 9 11 21 26 28 24 26 28 25 13 14 14 14 13 12 12 12 14 14 15
6 7 6 6 6 6 5 5 3 3 3 2 2 2 3 3 3 8 9 10 13 11 10 17 28 27 28 22 24 27 23 12 13 14 15 14 13 13 13 13 13 15 16
5 6 5 6 5 6 5 4 4 4 4 4 4 4 4 4 4 4 5 7 12 11 15 13 19 26 26 22 15 14 10 10 12 13 14 14 13 13 13 11 12 11 14
5 5 6 5 6 5 5 5 5 5 5 4 3 4 5 5 6 13 12 9 9 13 17 11 11 11 12 11 10 11 10 10 11 12 13 14 14 13 13 11 12 13 15
5 5 5 5 4 4 4 3 3 4 7 6 6 5 5 9 13 17 17 19 20 22 10 10 10 10 12 11 11 12 11 12 11 12 13 13 14 14 13 11 12 13 15
5 4 3 4 3 3 3 3 2 4 5 2 6 9 10 12 14 15 16 18 20 16 7 8 10 10 11 11 12 12 13 11 14 12 13 14 14 14 16 13 12 14 15
3 4 3 3 3 3 3 3 3 4 5 5 7 9 9 13 15 16 16 15 7 6 6 8 9 10 11 12 12 13 13 13 13 13 13 14 13 14 14 14 14 16 15
3 3 3 2 2 4 4 4 3 3 4 5 5 5 5 14 15 14 15 5 7 7 8 9 9 11 11 12 13 13 14 14 14 14 14 14 14 14 15 15 15 20 21
1 2 2 3 2 3 3 3 3 3 4 4 4 5 7 9 8 7 6 6 7 8 8 9 10 11 12 13 13 13 14 14 14 14 14 13 13 13 15 16 14 15 13
2 3 3 3 3 3 3 4 4 4 4 4 5 6 14 7 7 7 8 7 8 9 10 10 11 12 12 12 13 13 14 14 15 15 14 14 14 14 14 15 15 15 14
2 3 3 3 3 4 3 4 4 4 5 5 6 7 15 6 7 8 8 8 9 9 9 11 11 11 12 12 13 14 15 16 15 15 15 15 14 15 14 14 14 15 15
3 3 4 3 3 4 4 4 4 5 5 6 6 6 6 7 7 8 9 9 9 10 10 10 12 13 12 13 13 14 16 16 16 16 17 16 15 15 14 14 14 12 14
4 4 4 4 4 3 4 4 5 6 6 6 6 6 7 7 8 10 10 10 10 11 11 12 12 17 16 16 15 15 15 16 15 16 22 18 18 18 15 15 14 15 14
4 4 4 4 4 4 5 5 5 5 6 6 6 6 7 8 8 9 10 10 11 12 13 14 13 17 20 25 24 25 24 23 21 23 16 20 23 24 18 14 14 13 15
5 5 5 4 4 4 5 5 6 6 6 6 7 7 8 8 9 9 10 10 11 12 16 13 16 23 26 20 22 29 23 25 22 23 17 15 16 14 13 15 18 13 9
Wind_Direction
189 187 187 185 189 176 176 172 165 151 161 162 162 160 162 160 161 166 170 191 207 224 236 246 266 279 278 288 294 290 287 287 285 292 289 298 302 301 298 293 295 292 292
171 174 176 168 173 177 178 170 163 166 166 163 162 166 165 165 168 179 187 195 211 220 231 244 260 268 275 279 282 281 280 282 282 288 292 297 291 302 302 300 292 287 286
169 182 182 180 183 189 182 167 161 160 158 157 166 171 172 171 177 189 196 207 226 239 244 247 257 267 269 266 268 274 276 280 281 283 290 293 292 296 297 294 294 292 287
186 200 207 204 196 194 178 167 171 165 169 172 179 170 161 158 175 162 204 240 262 268 266 262 269 266 269 277 275 276 281 280 279 275 278 290 293 297 286 296 297 285 298
212 209 216 199 196 196 179 179 175 175 171 165 151 150 153 162 152 155 285 285 280 286 279 264 259 261 276 274 279 280 283 282 281 278 277 284 285 296 283 294 291 303 297
212 219 212 184 180 180 173 172 165 165 155 140 149 149 156 155 153 188 295 304 291 277 280 277 271 265 261 252 252 250 250 269 274 277 279 276 282 285 294 294 292 301 305
216 220 204 188 188 188 175 166 172 172 154 156 153 150 162 153 94 330 299 279 281 278 279 287 292 284 278 279 277 264 256 247 244 260 269 264 281 284 291 292 287 280 275
233 239 213 190 196 168 165 166 152 147 146 140 136 108 74 25 336 306 294 281 269 268 271 282 284 287 287 285 286 283 278 272 263 249 250 269 267 277 274 285 297 294 285
45 30 8 314 192 162 164 148 120 125 120 117 96 67 287 284 302 296 296 288 280 282 285 289 285 292 296 293 285 284 283 279 273 261 258 265 270 274 273 284 276 278 284
36 46 42 32 60 87 96 99 85 84 99 96 71 4 320 295 306 307 306 301 299 303 300 295 285 282 286 280 274 280 284 289 289 282 276 276 277 276 276 260 264 265 271
38 49 48 49 65 63 76 73 77 78 70 59 34 10 296 278 311 327 320 298 302 307 304 303 301 304 308 307 304 298 290 302 295 289 282 277 276 273 269 258 252 252 257
40 57 50 41 42 52 66 73 77 77 85 52 47 6 78 64 12 345 325 313 308 299 292 294 297 300 298 296 295 288 288 289 283 281 278 277 278 274 272 266 259 252 250
33 44 45 42 44 35 45 41 60 57 60 49 17 354 350 3 349 326 325 316 309 298 292 292 298 300 298 297 291 290 290 280 277 275 275 277 276 276 274 267 264 264 262
38 34 42 47 41 36 49 39 35 34 31 22 11 2 347 334 331 348 339 314 303 302 303 300 297 298 298 292 293 288 281 278 275 275 277 279 282 278 269 264 263 262 264
40 36 31 38 27 37 41 39 27 40 22 357 359 346 331 330 327 319 317 310 309 303 308 302 301 302 301 300 298 295 292 287 281 280 280 283 281 280 275 269 262 261 257
39 31 28 25 23 23 24 35 61 2 351 335 334 336 326 314 317 318 319 316 310 310 305 300 298 299 298 304 301 297 291 289 287 285 284 283 283 282 284 281 275 271 271
33 43 30 20 10 16 18 23 11 345 343 338 329 335 331 323 326 320 319 313 315 319 301 293 297 300 300 298 294 292 292 288 288 282 280 281 281 282 287 282 269 265 266
25 32 14 32 353 348 359 352 356 0 345 331 341 325 327 329 325 318 327 335 319 320 298 299 297 299 298 295 294 293 291 290 286 283 281 280 277 277 277 273 269 271 271
4 23 4 4 357 325 328 338 341 341 315 306 313 318 331 321 315 330 335 322 314 309 305 301 298 297 295 293 292 291 288 286 283 280 277 274 275 274 271 269 270 273 273
322 310 340 319 333 337 327 311 317 313 305 305 309 314 326 314 332 331 320 314 303 295 300 297 296 293 289 289 290 288 288 287 285 283 280 272 270 269 274 277 274 275 268
327 322 341 307 316 310 302 303 309 309 307 307 299 303 310 332 307 302 304 302 297 296 293 289 286 283 285 285 284 284 283 284 280 280 278 276 274 269 264 267 273 273 267
298 304 298 295 295 287 298 302 289 287 288 291 296 295 312 307 293 296 294 290 288 285 282 283 284 283 284 283 283 282 281 280 280 278 276 273 272 269 270 265 262 266 268
286 284 281 278 275 285 271 272 283 279 286 290 293 299 302 298 295 295 294 294 294 292 292 290 290 290 285 282 279 277 278 277 275 273 273 272 269 265 265 263 270 270 258
291 290 284 282 280 289 281 280 283 275 273 283 293 293 294 292 293 293 294 299 300 298 296 294 291 290 293 293 290 288 283 279 277 275 273 267 263 262 255 254 256 259 261
259 263 265 272 278 283 288 283 286 289 291 293 292 292 291 292 296 300 303 301 300 297 297 301 296 299 300 298 296 297 291 289 286 279 274 267 266 252 246 244 247 252 257
250 251 254 263 270 271 274 283 286 290 290 289 291 292 295 298 298 297 299 299 300 304 303 299 300 302 304 305 306 307 306 310 302 293 288 283 275 261 231 232 238 245 223